Regional Weather Roundup
Issued by NWS Little Rock, AR

Home | Current Version | Previous Version | Text Only | Print | Product List | Glossary On
Versions: 1 2 3 4 5 6 7 8 9 10 11 12 13 14 15 16 17 18 19 20 21 22 23 24 25 26 27 28 29 30 31 32 33 34 35 36 37 38 39 40 41 42 43 44 45 46 47 48 49 50
000
ASUS44 KLZK 290305
RWRLZK

WEATHER ROUNDUP FOR ARKANSAS
NATIONAL WEATHER SERVICE LITTLE ROCK AR
900 PM CST SUN DEC 28 2014

NOTE: "FAIR" INDICATES FEW OR NO CLOUDS BELOW 12,000 FEET WITH NO
SIGNIFICANT WEATHER AND/OR OBSTRUCTIONS TO VISIBILITY.

ARZ001-003-010-029-290400-
NORTHWEST ARKANSAS

CITY           SKY/WX    TMP DP  RH WIND       PRES   REMARKS
FAYETTEVILLE   CLEAR     26  24  92 CALM      30.15S
FORT SMITH     CLEAR     33  26  75 E3        30.17F
HARRISON       CLEAR     28  24  85 E3        30.16R
BENTONVILLE    CLEAR     30  21  69 E5        30.14F WCI  25
ROGERS         CLEAR     30  25  81 E6        30.15S WCI  24
SILOAM SPGS    CLEAR     28  19  69 E3        30.15S
HIGHFILL       CLEAR     28  24  85 CALM      30.14S
SPRINGDALE     CLEAR     30  25  80 CALM      30.16S
$$

ARZ004-005-016-290400-
NORTH CENTRAL ARKANSAS

CITY           SKY/WX    TMP DP  RH WIND       PRES   REMARKS
BATESVILLE     CLOUDY    36  28  75 E5        30.19F
FLIPPIN        CLEAR     27  21  80 CALM      30.18S
MTN HOME       CLEAR     28  24  85 CALM      30.18R
$$

ARZ040-041-290400-
WEST CENTRAL ARKANSAS

CITY           SKY/WX    TMP DP  RH WIND       PRES   REMARKS
MENA           CLEAR     32  30  93 CALM      30.15S
MOUNT IDA      CLEAR     30  28  92 CALM      30.15R
$$

ARZ009-017-025-026-028-290400-
NORTHEAST ARKANSAS

CITY           SKY/WX    TMP DP  RH WIND       PRES   REMARKS
JONESBORO      CLOUDY    36  32  85 NE3       30.20F
NEWPORT        CLOUDY    37  33  85 NE8       30.21F
WALNUT RIDGE   CLOUDY    36  28  75 NE7       30.20F
BLYTHEVILLE    CLOUDY    37  34  89 N8        30.20F
$$

ARZ022-023-033-042-044-290400-
CENTRAL ARKANSAS

CITY           SKY/WX    TMP DP  RH WIND       PRES   REMARKS
LITTLE ROCK    CLOUDY    39  32  76 E5        30.20F
N LITTLE ROCK  CLOUDY    36  34  92 E3        30.20F
JACKSONVILLE   MOCLDY    37  31  81 NE2       30.19S
SEARCY         CLOUDY    36  31  82 N6        30.21F
HOT SPRINGS    MOCLDY    35  30  82 E5        30.18S WCI  31
RUSSELLVILLE   CLEAR     30  27  88 CALM      30.18S
CLINTON        FAIR      28  27  93 CALM      30.21S FOG
$$

ARZ036-290400-
EAST ARKANSAS

CITY           SKY/WX    TMP DP  RH WIND       PRES   REMARKS
WEST MEMPHIS   LGT RAIN  37  35  92 N7        30.18F
$$

ARZ050-053-066-070-073-290400-
SOUTHWEST ARKANSAS

CITY           SKY/WX    TMP DP  RH WIND       PRES   REMARKS
ARKADELPHIA    MOCLDY    40  38  93 CALM      30.21R
CAMDEN         CLOUDY    39  36  87 MISG      30.20R
TEXARKANA      CLOUDY    41  38  89 E3        30.17S
EL DORADO      LGT RAIN  41  39  93 N5        30.18S
DE QUEEN       MOCLDY    38  36  92 CALM      30.16S
$$

ARZ056-057-069-290400-
SOUTHEAST ARKANSAS

CITY           SKY/WX    TMP DP  RH WIND       PRES   REMARKS
PINE BLUFF     CLOUDY    39  34  82 N6        30.20R
STUTTGART      CLOUDY    37  34  87 N6        30.20R
MONTICELLO     LGT RAIN  40  37  89 NW3       30.18R

$$





USA.gov is the U.S. government's official web portal to all federal, state and local government web resources and services.